{"data":{"norad_id":52551,"epoch":"2026-09-19T19:40:26.900256Z","epoch_age_seconds":122131,"freshness":"FRESH","line1":"1 52551U 22051U   26262.81975579 -.00001377  00000+0 -30562-4 0  9996","line2":"2 52551  53.1601 325.0241 0001044 150.8948 209.2113 15.33532023240929","mean_motion":15.33532023,"eccentricity":0.0001044,"inclination_deg":53.1601,"raan_deg":325.0241,"arg_perigee_deg":150.8948,"mean_anomaly_deg":209.2113,"bstar":-3.0562e-5,"rev_number":24092,"period_min":93.900875782364,"perigee_km":464.5698143198,"apogee_km":465.99872068045,"semimajor_km":6843.4212675001,"source":"CELESTRAK","updated_at":"2026-09-20T09:00:40.061377Z"}}